STARLINK-11605, 63134

Orbit data source: Space-Track

STARLINK-11605, 63134 is a payload satellite owned by SpaceX/Seattle (US) in LEO that was launched on Mon, 03 Mar 2025 UTC via an FALCON 9 launch vehicle from the Air Force Eastern Test Range (AFETR). Payload-class satellites include a variety of spacecraft equipped with specific instruments for various scientific and technological missions. These include communications satellites like Starlink; space stations such as the ISS; scientific satellites like the Hubble; Earth observation satellites from companies like Planet Labs, Umbra, and HawkEye 360; GPS; miniature CubeSats for education and research; and military/defense satellites.

Loading next visibility...
Identifier
63134, 2025-043C
Orbit
LEO
Country
Flag of USUS
Related business
Manufacturer
SpaceX/Seattle
Mission
Operational Commercial Communications
Bus & Motor
STARLINK V2MD, Unknown motor
Mass
960 kg wet, ~910 kg dry
Launch date (UTC)
2025-03-03 (6 months ago)
Launch vehicle
FALCON 9
Launch site
Air Force Eastern Test Range (AFETR)
Object type
Payload
Rocket body
Debris
Shape & HBR
Box + 2 Pan, 14.5 m
Radar Cross Section
36.964 m², Large (>1 m²)

Expand to show TLE details & history
Last TLE update: 8 hours ago

TLE from 8 hours ago
0 STARLINK-11605
1 63134U 25043C   25258.60433467  .00186026  00000-0  14142-2 0  9993
2 63134  42.9999 226.2639 0000849 339.5674  20.5159 15.70954499 31817
Epoch: 2025-09-15T14:30Z
TLE epoch observation values (Epoch: 2025-09-15T14:30:14.515Z)
Latitude
-0.00006°
Longitude
13.89675°
Altitude
355.404 km
Speed
7.698 km/s
True Right ascension
15h 05m 03s
True Declination
0° 00' 00"
Sunlit
Object was in daylight at epoch
Visualization orbit readout
Latitude
Unknown
Longitude
Unknown
Altitude
Unknown
Speed
Unknown
Apparent Right ascension
Unknown
Apparent Declination
Unknown
Sunlit
N/A
Visualization observer readout
Local Sidereal Time
14:41:38
Azimuth
Unknown
Elevation
Unknown
Doppler factor
Unknown
Orbital elements
Apogee altitude
358.721 km
Perigee altitude
357.578 km
Semi-major axis
6,736.287 km
Eccentricity
0.00008
Inclination
42.9999°
RAAN
226.2639°
Arg. of periapsis
339.5674°
True anomaly
20.51931°
Mean anomaly
20.5159°
Eccentric anomaly
20.5176°
Mean motion
3.92566 °/min
Orbital period
91.7 mins
BSTAR
0.0014142
Loading maneuver chart data...
Computing Atmospheric mass density...
Loading historical data...
Loading historical data...
Loading historical data...
Loading historical data...
Loading historical data...
Loading historical data...
Loading historical data...

Documentation

Showing up to 5 results
|